Location: Bothwell
(42.3833°S, 147.0000°E)
Time: 22:51:28
(UTC+11:00)

STARS - Pass Details

Date: 03 October 2022
Orbit: 619 x 636 km, 98.2° (Epoch: 03 December)

Event Time Altitude Azimuth Distance (km) Brightness Sun altitude
Exits shadow 23:41:58 11° 204° (SSW) 1,959 ? -40.2°
Drops below altitude 10° 23:42:08 10° 204° (SSW) 2,024 ? -40.2°
Sets 23:44:25 0° 198° (SSW) 2,938 ? -40.4°
